Starlink 6050

operational
NORAD ID: 56458 Int'l Des: 2023-064 Owner: SPXS Country: US Constellation: starlink
LEOCIRCULAR

About Starlink 6050

Description loading...

Live Position

Loading 3D Globe...

Upcoming Passes

Altitude History

Altitude vs Time

uPlot chart will show altitude changes over time

Two-Line Element Set

1 56458U 23064L 26015.01009126 .00001367 00000-0 12238-3 0 9992
2 56458 69.9988 279.8688 0002629 273.6372 86.4486 14.98327932147204
Epoch: Jan 15, 2026 • Age: 11 hours

Current Status

Altitude 584.9 km
Velocity 7.57 km/s
Sub-Earth Point -38.06°S, 162.25°W
Launch Date May 10, 2023
Age 2.6 years
Type internet

Technical Details

Classification Payload
Mass 305.00 kg
Dry Mass 290.00 kg
Total Mass 305.00 kg
Length 0.20 m
Diameter 2.80 m
Span 9.00 m
Shape Box + pan
Manufacturer SPXS
Bus Type Starlink
Phase Status In Orbit
Owner/State SPXS/US

Large Constellations

Loading constellations...